Regional Weather Roundup
Issued by NWS

Home | Current Version | Previous Version | Text Only | Print | Product List | Glossary On
Versions: 1 2 3 4 5 6 7 8 9 10 11 12 13 14 15 16 17 18 19 20 21 22 23 24 25 26 27 28 29 30 31 32 33 34 35 36 37 38 39 40 41 42 43 44 45 46 47 48 49 50
000
ASUS43 KLSX 202359
RWRMO

WEATHER SUMMARY FOR MISSOURI
NATIONAL WEATHER SERVICE SPRINGFIELD MO
700 PM CDT WED AUG 20 2014

NOTE: "FAIR" INDICATES FEW OR NO CLOUDS BELOW 12,000 FEET WITH NO
       SIGNIFICANT WEATHER AND/OR OBSTRUCTIONS TO VISIBILITY.
       CURRENT SKY AND/OR WEATHER CONDITIONS ARE NOT AVAILABLE FOR
       CHILLICOTHE AND FARMINGTON.

MOZ001>031-035>038-043-044-053-054-210100-
...NORTHERN AND WESTERN MISSOURI...

CITY           SKY/WX    TMP DP  RH WIND       PRES   REMARKS
KANSAS CTY INT MOSUNNY   88  73  61 S9        29.83F HX  95
6HR MIN TEMP:  88; 6HR MAX TEMP:  92;

KANSAS C DTWN  SUNNY     91  70  49 S13       29.81F HX  96
6HR MIN TEMP:  91; 6HR MAX TEMP:  94;

LEE`S SUMMIT   SUNNY     89  71  55 S8        29.85F HX  95
6HR MIN TEMP:  88; 6HR MAX TEMP:  92;

ST JOSEPH      PTSUNNY   87  74  64 SE12      29.81F HX  95
6HR MIN TEMP:  87; 6HR MAX TEMP:  92;

KIRKSVILLE     SUNNY     85  76  74 S6        29.89F HX  94
6HR MIN TEMP:  82; 6HR MAX TEMP:  88;


$$
MOZ066>068-077>081-088>096-101>105-210100-
...SOUTHWEST MISSOURI...

CITY           SKY/WX    TMP DP  RH WIND       PRES   REMARKS
SPRINGFIELD    MOSUNNY   88  63  43 SW14      29.92F
6HR MIN TEMP:  88; 6HR MAX TEMP:  96;

JOPLIN         SUNNY     88  65  46 S16       29.90F HX  90
6HR MIN TEMP:  88; 6HR MAX TEMP:  95;


$$
MOZ032>034-039>042-045>050-055>058-069>072-210100-
...CENTRAL MISSOURI...

CITY           SKY/WX    TMP DP  RH WIND       PRES   REMARKS
COLUMBIA       PTCLDY    78  75  90 SE7       29.90F
6HR MIN TEMP:  76; 6HR MAX TEMP:  92; 6HR PCP:  0.26;

JEFFERSON CITY MOCLDY    80  74  81 CALM      29.89F
6HR MIN TEMP:  75; 6HR MAX TEMP:  92; 6HR PCP:  0.01;

ROLLA          CLOUDY    75  69  81 CALM      29.93R
6HR MIN TEMP:  74; 6HR MAX TEMP:  92; 6HR PCP:  0.19;

SEDALIA        SUNNY     85  72  65 S6        29.88F HX  91
6HR MIN TEMP:  85; 6HR MAX TEMP:  93; 6HR PCP: TRACE;

OSAGE BEACH    PTSUNNY   82  70  65 CALM      29.90S

$$
MOZ051-052-059>065-210100-
...EAST CENTRAL MISSOURI...

CITY           SKY/WX    TMP DP  RH WIND       PRES   REMARKS
ST LOUIS INTL  PTCLDY    86  74  67 E7        29.92F HX  94
6HR MIN TEMP:  83; 6HR MAX TEMP:  91;

SPIRIT OF STL  PTCLDY    85  74  69 VRB5      29.90S HX  92
6HR MIN TEMP:  85; 6HR MAX TEMP:  92;

ST CHARLES     CLEAR     82  74  76 SE7       29.90S
6HR MIN TEMP:  81; 6HR MAX TEMP:  86;


$$
MOZ072>076-082>087-097>100-106>115-210100-
...SOUTH CENTRAL AND SOUTHEAST MISSOURI...

CITY           SKY/WX    TMP DP  RH WIND       PRES   REMARKS
CAPE GIRARDEAU PTCLDY    88  76  67 S6        29.91S HX  99
6HR MIN TEMP:  88; 6HR MAX TEMP:  92;

FARMINGTON     PTCLDY    81  72  74 E8        29.95S
6HR MIN TEMP:  81; 6HR MAX TEMP:  93;

POPLAR BLUFF   CLEAR     88  72  58 S8        29.89F HX  94
6HR MIN TEMP:  88; 6HR MAX TEMP:  94;

WEST PLAINS    PTCLDY    88  64  44 S7        29.95F
6HR MIN TEMP:  88; 6HR MAX TEMP:  93;


$$


USA.gov is the U.S. government's official web portal to all federal, state and local government web resources and services.